CDT,Max TemperatureF,Mean TemperatureF,Min TemperatureF,Max Dew PointF,MeanDew PointF,Min DewpointF,Max Humidity, Mean Humidity, Min Humidity, Max Sea Level PressureIn, Mean Sea Level PressureIn, Min Sea Level PressureIn, Max VisibilityMiles, Mean VisibilityMiles, Min VisibilityMiles, Max Wind SpeedMPH, Mean Wind SpeedMPH, Max Gust SpeedMPH,PrecipitationIn, CloudCover, Events, WindDirDegrees
2013-3-1,35,33,31,34,32,30,100,95,83,30.14,30.09,30.04,10,4,1,16,8,17,0.00,8,Snow,332
2013-3-2,33,30,28,29,25,21,93,80,62,30.21,30.18,30.14,10,9,2,16,12,21,0.00,7,Snow,330
2013-3-3,35,30,24,25,22,18,93,70,48,30.20,30.14,30.08,10,10,7,7,3,,0.00,3,,291
2013-3-4,47,40,33,33,30,24,78,66,56,30.09,29.94,29.81,10,10,5,20,8,25,0.00,7,Snow,112
2013-3-5,43,38,32,36,32,25,100,82,66,30.03,29.88,29.78,10,8,0,26,10,37,0.04,8,Rain-Snow,310
2013-3-6,34,32,30,29,27,26,84,81,77,30.35,30.26,30.03,10,10,10,24,17,36,0.00,8,,334
2013-3-7,42,35,28,32,28,26,91,79,63,30.43,30.38,30.35,10,10,7,6,1,,0.00,3,,92
2013-3-8,50,40,30,35,31,28,95,71,49,30.46,30.37,30.25,10,10,7,10,5,16,0.00,0,,104
2013-3-9,60,50,41,40,35,32,71,57,42,30.24,30.06,29.87,10,10,10,16,9,28,0.00,3,Thunderstorm,134
2013-3-10,64,57,50,53,47,36,100,73,42,29.87,29.77,29.66,10,9,4,23,12,32,0.12,7,Rain,174
2013-3-11,51,43,35,51,37,31,100,91,79,29.98,29.80,29.69,10,8,2,20,13,26,0.00,8,Rain,257
2013-3-12,48,40,32,32,29,27,89,71,49,30.17,30.07,29.99,10,10,10,21,10,26,0.00,2,,276
2013-3-13,39,34,28,28,23,21,83,67,52,30.41,30.32,30.17,10,10,7,21,13,26,0.00,5,Snow,305
2013-3-14,46,36,26,32,27,24,93,73,53,30.41,30.29,30.14,10,10,10,17,4,20,0.00,3,,163
2013-3-15,67,48,30,52,40,30,100,70,44,30.13,29.90,29.67,10,9,3,16,4,24,0.00,1,,171
2013-3-16,63,50,38,52,42,34,96,78,61,30.06,29.87,29.65,10,8,2,22,12,26,0.00,5,Rain-Thunderstorm,334
2013-3-17,38,36,33,38,34,30,100,90,81,30.11,30.01,29.78,10,7,2,15,10,23,0.91,8,Rain-Snow-Thunderstorm,56
2013-3-18,45,42,37,42,38,30,100,90,64,29.99,29.77,29.66,10,8,2,18,9,25,0.11,6,Rain-Thunderstorm,286
2013-3-19,46,39,32,30,25,21,76,60,39,30.20,30.13,30.00,10,10,10,18,11,28,0.00,0,,278
2013-3-20,35,32,27,29,20,14,82,63,50,30.24,30.17,30.10,10,10,10,23,10,29,0.00,2,,297
2013-3-21,35,29,23,22,18,14,74,64,49,30.13,30.07,30.01,10,10,10,12,5,,0.00,1,Snow,354
2013-3-22,41,34,28,26,22,20,77,61,45,30.07,30.04,30.01,10,10,10,7,2,,0.00,6,,94
2013-3-23,53,44,35,34,30,26,75,58,44,30.05,29.97,29.81,10,10,4,12,4,18,0.00,5,,58
2013-3-24,43,38,32,36,34,32,100,97,61,29.86,29.63,29.48,10,3,0,23,11,32,0.39,8,Rain-Snow-Thunderstorm,10
2013-3-25,35,33,31,33,30,28,100,89,77,30.15,29.93,29.71,10,6,2,21,15,28,0.00,8,Snow,304
2013-3-26,40,36,32,29,28,26,89,75,59,30.35,30.26,30.15,10,10,7,16,9,21,0.00,6,Snow,302
2013-3-27,44,37,30,34,29,25,96,73,52,30.41,30.36,30.33,10,10,10,8,3,,0.03,0,,270
2013-3-28,55,43,32,37,31,26,88,63,47,30.40,30.34,30.27,10,10,10,9,2,,0.00,4,,116
2013-3-29,58,50,43,46,40,32,98,70,54,30.29,30.25,30.21,10,10,5,8,4,,0.00,5,Rain,103
2013-3-30,59,47,36,49,43,36,100,90,57,30.22,30.09,29.93,10,5,0,12,3,18,0.01,6,Fog-Rain-Snow,155
2013-3-31,65,56,47,51,47,41,100,80,48,29.93,29.89,29.85,10,6,1,14,4,17,0.01,5,Rain,273